Overview Statistics Trail Chart Weather Telemetry Raw packets
 

This is the latest recevied weather packets stored in our database for station/object KE5WTH-14. If no packets are shown the sender has not sent any weather packets the latest 10 day(s).

<< 560 561 562 563 >>
Time Temp. Humidity Pressure Rain* Wind** Luminosity Snow
1787864355 36.67° C 43% 1014.6 hPa 0 mm - 157 W/m² -
1787864296 36.67° C 43% 1014.6 hPa 0 mm - 178 W/m² -
1787864235 36.67° C 43% 1014.6 hPa 0 mm - 760 W/m² -
1787864178 36.67° C 43% 1014.6 hPa 0 mm - 726 W/m² -
1787864115 37.22° C 43% 1014.6 hPa 0 mm - 726 W/m² -
1787864057 37.22° C 43% 1014.6 hPa 0 mm - 726 W/m² -
1787864026 37.22° C 43% 1014.6 hPa 0 mm - 772 W/m² -
1787863991 37.22° C 43% 1014.6 hPa 0 mm - 823 W/m² -
1787863963 37.22° C 43% 1014.7 hPa 0 mm - 823 W/m² -
1787863937 37.22° C 43% 1014.7 hPa 0 mm - 828 W/m² -
1787863749 36.67° C 44% 1014.6 hPa 0 mm - 828 W/m² -
1787863687 36.67° C 43% 1014.7 hPa 0 mm - 833 W/m² -
1787863626 36.67° C 43% 1014.7 hPa 0 mm - 183 W/m² -
1787863563 36.67° C 43% 1014.8 hPa 0 mm - 183 W/m² -
1787863511 36.67° C 43% 1014.7 hPa 0 mm - 181 W/m² -
1787863447 36.67° C 43% 1014.6 hPa 0 mm - 849 W/m² -
1787863386 36.67° C 43% 1014.7 hPa 0 mm - 860 W/m² -
1787863325 36.67° C 43% 1014.7 hPa 0 mm - 860 W/m² -
1787863264 36.67° C 42% 1014.7 hPa 0 mm - 884 W/m² -
1787863210 36.67° C 42% 1014.8 hPa 0 mm - 899 W/m² -
1787863146 36.67° C 43% 1014.7 hPa 0 mm - 899 W/m² -
1787863086 36.67° C 43% 1014.9 hPa 0 mm - 886 W/m² -
1787863026 36.67° C 43% 1014.8 hPa 0 mm - 886 W/m² -
1787862946 37.22° C 42% 1014.8 hPa 0 mm - 884 W/m² -
1787862885 37.22° C 43% 1014.8 hPa 0 mm - 872 W/m² -

* Rain latest hour (hover to see other rain measurements)
** Current wind speed in m/s (hover to see current wind gust speed)